Weather History for KBGR - August, 2014

Change the Weather History Date:

Sunday, August 24, 2014

  Actual Average Record
Temperature  
Mean Temperature 69 °F 66 °F  
Max Temperature 85 °F 77 °F 91 °F (1948)
Min Temperature 52 °F 55 °F 38 °F (1945)
Degree Days  
Heating Degree Days 0 2  
Month to date heating degree days 8 27  
Since 1 June heating degree days 84 157  
Since 1 July heating degree days 13 50  
Cooling Degree Days 4 3  
Month to date cooling degree days 62 86  
Year to date cooling degree days 281 276  
Since 1 June cooling degree days 281 270  
Growing Degree Days 18 (Base 50)    
Moisture  
Dew Point 58 °F    
Average Humidity 70    
Maximum Humidity 100    
Minimum Humidity 40    
Precipitation  
Precipitation T in 0.09 in 1.65 in (1933)
Month to date precipitation 2.81 2.36  
Year to date precipitation 27.59 25.63  
Snow  
Snow 0.00 in 0.00 in 0.00 in (2002)
Month to date snowfall 0.0 0.0  
Since 1 June snowfall 0.0 0.0  
Since 1 July snowfall 0.0 0.0  
Snow Depth 0.00 in    
Sea Level Pressure  
Sea Level Pressure 30.08 in    
Wind  
Wind Speed 2 mph (WNW)    
Max Wind Speed 14 mph    
Max Gust Speed 18 mph    
Visibility 10 miles    
Events      
T = Trace of Precipitation, MM = Missing Value Source: NWS Daily Summary

Daily Weather History Graph

Daily Weather History Graph

Search for Another Location

Airport or City:

Trip Planner

Search our weather history database for the weather conditions in past years. The results will help you decide how hot, cold, wet, or windy it might be!

Date:

Astronomy

Aug. 24, 2014 Rise Set
Actual Time 5:48 AM EDT 7:26 PM EDT
Civil Twilight 5:17 AM EDT 7:57 PM EDT
Nautical Twilight 4:39 AM EDT 8:34 PM EDT
Astronomical Twilight 3:59 AM EDT 9:14 PM EDT
Moon 4:55 AM EDT (8/24) 6:41 PM EDT (8/24)
Length of Visible Light 14h 39m
Length of Day
13h 38m
Waning Crescent, 1% of the Moon is Illuminated
Aug 24
Waning Crescent
Aug 25
New
Sep 2
First Quarter
Sep 8
Full
Sep 15
Last Quarter

Hourly Weather History & Observations

Time (EDT) Temp. Heat Index Dew Point Humidity Pressure Visibility Wind Dir Wind Speed Gust Speed Precip Events Conditions
12:53 AM 55.9 °F - 53.1 °F 90% 30.12 in 10.0 mi Calm Calm - N/A   Partly Cloudy
1:53 AM 54.0 °F - 52.0 °F 93% 30.11 in 10.0 mi Calm Calm - N/A   Clear
2:53 AM 54.0 °F - 51.1 °F 90% 30.11 in 10.0 mi Calm Calm - N/A   Scattered Clouds
3:53 AM 54.0 °F - 53.1 °F 97% 30.10 in 10.0 mi Calm Calm - N/A   Clear
4:53 AM 53.1 °F - 51.1 °F 93% 30.11 in 10.0 mi Calm Calm - N/A   Partly Cloudy
5:53 AM 53.1 °F - 51.1 °F 93% 30.12 in 10.0 mi Calm Calm - N/A   Partly Cloudy
6:53 AM 57.0 °F - 54.0 °F 89% 30.12 in 10.0 mi Calm Calm - N/A   Partly Cloudy
7:53 AM 60.1 °F - 55.0 °F 83% 30.13 in 10.0 mi Calm Calm - N/A   Partly Cloudy
8:53 AM 66.0 °F - 57.0 °F 73% 30.12 in 10.0 mi Calm Calm - N/A   Partly Cloudy
9:53 AM 71.1 °F - 59.0 °F 66% 30.12 in 10.0 mi Variable 3.5 mph - N/A   Partly Cloudy
10:53 AM 73.9 °F - 57.9 °F 57% 30.11 in 10.0 mi Variable 3.5 mph - N/A   Scattered Clouds
11:53 AM 78.1 °F - 59.0 °F 52% 30.10 in 10.0 mi Variable 5.8 mph - N/A   Scattered Clouds
12:53 PM 81.0 °F 81.3 °F 59.0 °F 47% 30.08 in 10.0 mi NNW 8.1 mph - N/A   Scattered Clouds
1:53 PM 82.0 °F 82.0 °F 57.9 °F 44% 30.06 in 10.0 mi North 5.8 mph - N/A   Scattered Clouds
2:53 PM 84.0 °F 83.5 °F 57.9 °F 41% 30.06 in 10.0 mi NW 6.9 mph - N/A   Scattered Clouds
3:53 PM 82.9 °F 82.8 °F 59.0 °F 44% 30.05 in 10.0 mi NNW 8.1 mph - N/A   Mostly Cloudy
4:53 PM 84.0 °F 83.8 °F 59.0 °F 43% 30.04 in 10.0 mi NW 6.9 mph - N/A   Scattered Clouds
5:53 PM 82.9 °F 83.2 °F 60.1 °F 46% 30.04 in 10.0 mi West 3.5 mph - N/A   Mostly Cloudy
6:53 PM 73.9 °F - 66.0 °F 76% 30.05 in 10.0 mi SW 3.5 mph - 0.00 in   Mostly Cloudy
7:53 PM 69.1 °F - 64.0 °F 84% 30.05 in 10.0 mi WSW 3.5 mph - N/A   Partly Cloudy
8:53 PM 69.1 °F - 64.0 °F 84% 30.05 in 10.0 mi Calm Calm - N/A   Partly Cloudy
9:53 PM 68.0 °F - 62.6 °F 83% 30.06 in 10.0 mi SSW 3.5 mph - N/A   Clear
10:53 PM 64.4 °F - 62.6 °F 94% 30.06 in 10.0 mi Calm Calm - N/A   Clear
11:53 PM 64.9 °F - 61.0 °F 87% 30.07 in 10.0 mi Calm Calm - N/A   Clear